Location: Bats
(43.6587°N, 0.4584°W)
Time: 15:07:25
(UTC+00:00)

YAOGAN 3 - Visible Passes

Search period start: 19 April 2026 00:00
Search period end: 29 April 2026 00:00
Orbit: 595 x 597 km, 97.8° (Epoch: 19 April)

Date Brightness Start Highest point End Pass type
(mag) Time Alt. Az. Time Alt. Az. Time Alt. Az.
20 Apr 5.7 19:22:43 10° S 19:26:45 46° W 19:30:49 10° NNW visible
21 Apr 6.2 19:32:49 10° SSW 19:36:42 36° W 19:40:36 10° NNW visible
22 Apr 6.6 19:43:01 10° SSW 19:46:39 28° W 19:50:19 10° NW visible
23 Apr 7.0 19:53:18 10° SSW 19:56:37 22° W 19:59:57 10° NW visible
24 Apr 7.3 20:03:45 10° SW 20:06:36 18° W 20:09:29 10° NW visible
25 Apr 7.4 20:14:22 10° WSW 20:16:36 14° W 20:18:49 10° WNW visible
26 Apr 7.7 20:25:33 10° WSW 20:26:36 11° W 20:27:39 10° WNW visible
